N5FTL Weather Reports


time (UTC)temp
C
wind
direction
speed
KPH
gust
KPH
rain 1hr
cm
rain 24hr
cm
rain mn
cm
humidity
%
barometer
mb
20260510061149 23 163 0.0 0.0 0.00 0.00 0.00 59 1003.2
20260510060649 23 163 0.0 1.6 0.00 0.00 0.00 59 1003.2
20260510055648 23 167 0.0 0.0 0.00 0.00 0.00 59 1003.3
20260510054648 23 167 0.0 3.2 0.00 0.00 0.00 58 1003.4
20260510054148 23 170 0.0 3.2 0.00 0.00 0.00 58 1003.3
20260510053648 23 132 0.0 4.8 0.00 0.00 0.00 57 1003.4
20260510052648 23 110 0.0 4.8 0.00 0.00 0.00 56 1003.4
20260510052149 24 105 0.0 1.6 0.00 0.00 0.00 56 1003.4
20260510051648 24 132 0.0 3.2 0.00 0.00 0.00 56 1003.4
20260510051148 24 134 0.0 3.2 0.00 0.00 0.00 56 1003.5
20260510050649 24 177 0.0 3.2 0.00 0.00 0.00 55 1003.5
20260510050148 24 167 0.0 0.0 0.00 0.00 0.00 55 1003.5
20260510045649 24 169 0.0 0.0 0.00 0.00 0.00 55 1003.5
20260510045149 24 169 0.0 0.0 0.00 0.00 0.00 54 1003.5
20260510044648 24 169 0.0 0.0 0.00 0.00 0.00 54 1003.7
20260510044149 25 120 0.0 0.0 0.00 0.00 0.00 54 1003.6
20260510043149 25 117 0.0 0.0 0.00 0.00 0.00 53 1003.6
20260510042648 25 141 0.0 0.0 0.00 0.00 0.00 53 1003.6
20260510042148 25 110 0.0 9.7 0.00 0.00 0.00 52 1003.6
20260510041148 25 186 0.0 3.2 0.00 0.00 0.00 52 1003.6
20260510040648 25 189 0.0 3.2 0.00 0.00 0.00 52 1003.5
20260510040148 25 204 0.0 0.0 0.00 0.00 0.00 52 1003.5
20260510035648 25 211 0.0 0.0 0.00 0.00 0.00 52 1003.5
20260510035148 25 223 0.0 0.0 0.00 0.00 0.00 52 1003.5
20260510034648 25 174 0.0 0.0 0.00 0.00 0.00 52 1003.5
20260510034148 25 162 0.0 0.0 0.00 0.00 0.00 53 1003.5
20260510033648 25 162 0.0 0.0 0.00 0.00 0.00 53 1003.4
20260510033148 24 156 0.0 0.0 0.00 0.00 0.00 53 1003.4
20260510032148 24 129 0.0 0.0 0.00 0.00 0.00 52 1003.5
20260510031648 24 177 0.0 0.0 0.00 0.00 0.00 50 1003.4
20260510031148 24 177 0.0 0.0 0.00 0.00 0.00 49 1003.4
20260510030148 25 177 0.0 0.0 0.00 0.00 0.00 47 1003.4
20260510025648 25 177 0.0 0.0 0.00 0.00 0.00 47 1003.4
20260510025148 25 177 0.0 0.0 0.00 0.00 0.00 46 1003.4
20260510024648 25 177 0.0 0.0 0.00 0.00 0.00 46 1003.4
20260510024148 26 177 0.0 0.0 0.00 0.00 0.00 45 1003.2
20260510023648 26 177 0.0 0.0 0.00 0.00 0.00 44 1003.1
20260510023148 26 177 0.0 0.0 0.00 0.00 0.00 43 1003.1
20260510022648 26 178 0.0 0.0 0.00 0.00 0.00 42 1003.0
20260510022148 27 178 0.0 0.0 0.00 0.00 0.00 41 1002.9
20260510021649 27 178 0.0 0.0 0.00 0.00 0.00 41 1002.9
20260510020648 28 178 0.0 0.0 0.00 0.00 0.00 39 1002.6
20260510020148 28 178 0.0 0.0 0.00 0.00 0.00 39 1002.5
20260510015648 28 178 0.0 0.0 0.00 0.00 0.00 38 1002.4
20260510014648 30 178 0.0 0.0 0.00 0.00 0.00 36 1002.3
20260510013648 30 178 0.0 0.0 0.00 0.00 0.00 34 1002.1
20260510013148 31 178 0.0 0.0 0.00 0.00 0.00 34 1002.0
20260510012148 32 178 0.0 0.0 0.00 0.00 0.00 32 1001.9
20260510011648 33 178 0.0 0.0 0.00 0.00 0.00 31 1001.9
20260510011148 33 209 0.0 0.0 0.00 0.00 0.00 30 1002.0
20260510010648 33 209 0.0 0.0 0.00 0.00 0.00 30 1002.0
20260510010148 33 209 0.0 0.0 0.00 0.00 0.00 29 1002.0
20260510005648 34 209 0.0 0.0 0.00 0.00 0.00 30 1002.0
20260510005148 34 209 0.0 0.0 0.00 0.00 0.00 29 1002.0
20260510004148 34 209 0.0 0.0 0.00 0.00 0.00 28 1002.0
20260510003648 33 209 0.0 0.0 0.00 0.00 0.00 29 1002.0
20260510003148 33 212 0.0 0.0 0.00 0.00 0.00 28 1002.0
20260510002648 34 212 0.0 0.0 0.00 0.00 0.00 28 1002.0
20260510002148 35 212 0.0 0.0 0.00 0.00 0.00 27 1002.0
20260510001648 35 210 0.0 0.0 0.00 0.00 0.00 28 1002.1
20260510001148 35 210 0.0 0.0 0.00 0.00 0.00 27 1002.0
20260510000648 35 210 0.0 1.6 0.00 0.00 0.00 29 1002.1
20260510000148 35 210 0.0 1.6 0.00 0.00 0.00 26 1002.1
20260509234648 34 219 0.0 0.0 0.00 0.00 0.00 30 1002.2
20260509234148 34 222 0.0 0.0 0.00 0.00 0.00 27 1002.1
20260509233648 34 213 0.0 0.0 0.00 0.00 0.00 27 1002.1
20260509233148 34 218 0.0 0.0 0.00 0.00 0.00 28 1002.0
20260509232648 34 228 0.0 0.0 0.00 0.00 0.00 28 1002.1
20260509232148 35 236 0.0 1.6 0.00 0.00 0.00 28 1002.1
20260509231647 34 207 0.0 1.6 0.00 0.00 0.00 29 1002.2
20260509231148 34 212 0.0 0.0 0.00 0.00 0.00 28 1002.2
20260509230648 34 210 0.0 4.8 0.00 0.00 0.00 28 1002.2
20260509230148 34 210 0.0 4.8 0.00 0.00 0.00 28 1002.2
20260509225648 34 229 0.0 0.0 0.00 0.00 0.00 28 1002.3
20260509225148 34 217 0.0 0.0 0.00 0.00 0.00 29 1002.2
20260509224647 34 181 0.0 19.3 0.00 0.00 0.00 31 1002.2
20260509224148 33 233 1.6 19.3 0.00 0.00 0.00 28 1002.1
20260509223648 34 241 0.0 8.0 0.00 0.00 0.00 28 1002.2
20260509223148 35 205 0.0 14.5 0.00 0.00 0.00 29 1002.2
20260509222647 35 192 1.6 14.5 0.00 0.00 0.00 29 1002.3
20260509222148 34 220 0.0 4.8 0.00 0.00 0.00 31 1002.3
20260509221648 34 227 0.0 0.0 0.00 0.00 0.00 28 1002.3
20260509221148 33 222 0.0 0.0 0.00 0.00 0.00 32 1002.3
20260509220648 33 229 0.0 0.0 0.00 0.00 0.00 29 1002.4
20260509220147 33 240 0.0 19.3 0.00 0.00 0.00 30 1002.5
20260509215647 33 218 0.0 19.3 0.00 0.00 0.00 31 1002.4
20260509215147 33 226 9.7 19.3 0.00 0.00 0.00 29 1002.6
20260509214148 35 218 0.0 11.3 0.00 0.00 0.00 28 1002.6
20260509213147 36 237 0.0 0.0 0.00 0.00 0.00 28 1002.7
20260509212148 36 123 0.0 1.6 0.00 0.00 0.00 31 1002.7
20260509211647 36 124 0.0 1.6 0.00 0.00 0.00 29 1002.8
20260509211148 36 123 0.0 1.6 0.00 0.00 0.00 31 1003.0
20260509210147 36 196 0.0 0.0 0.00 0.00 0.00 32 1003.1
20260509205647 36 154 0.0 1.6 0.00 0.00 0.00 33 1003.2
20260509205148 36 126 0.0 3.2 0.00 0.00 0.00 36 1003.2
20260509204647 35 142 0.0 3.2 0.00 0.00 0.00 36 1003.3
20260509204148 35 165 0.0 3.2 0.00 0.00 0.00 38 1003.4
20260509203647 35 218 0.0 1.6 0.00 0.00 0.00 36 1003.4
20260509203148 35 129 0.0 1.6 0.00 0.00 0.00 37 1003.6
20260509202647 33 198 0.0 3.2 0.00 0.00 0.00 34 1003.7
20260509201647 33 246 0.0 0.0 0.00 0.00 0.00 36 1003.7
20260509201148 33 216 0.0 0.0 0.00 0.00 0.00 36 1003.8
20260509200647 33 221 0.0 0.0 0.00 0.00 0.00 38 1003.9
20260509200148 33 200 0.0 0.0 0.00 0.00 0.00 38 1003.9
20260509195647 33 124 0.0 0.0 0.00 0.00 0.00 39 1004.0
20260509194647 33 214 0.0 0.0 0.00 0.00 0.00 37 1004.0
20260509194147 33 182 0.0 14.5 0.00 0.00 0.00 38 1004.1
20260509193147 33 222 1.6 14.5 0.00 0.00 0.00 40 1004.2
20260509192647 34 186 0.0 4.8 0.00 0.00 0.00 40 1004.2
20260509192147 33 142 0.0 4.8 0.00 0.00 0.00 43 1004.2
20260509191647 33 148 0.0 3.2 0.00 0.00 0.00 43 1004.3
20260509190647 33 245 0.0 1.6 0.00 0.00 0.00 38 1004.4
20260509190147 33 168 0.0 1.6 0.00 0.00 0.00 43 1004.6
20260509185147 33 167 0.0 8.0 0.00 0.00 0.00 40 1004.8
20260509184147 33 145 0.0 9.7 0.00 0.00 0.00 43 1005.0
20260509183647 32 107 1.6 4.8 0.00 0.00 0.00 42 1005.0
20260509183147 32 126 0.0 3.2 0.00 0.00 0.00 42 1005.2
20260509182647 32 127 0.0 4.8 0.00 0.00 0.00 43 1005.3
20260509182148 32 108 0.0 4.8 0.00 0.00 0.00 41 1005.4
20260509181147 32 172 0.0 3.2 0.00 0.00 0.00 41 1005.7
20260509180647 32 172 0.0 3.2 0.00 0.00 0.00 43 1005.8
20260509180147 31 125 0.0 3.2 0.00 0.00 0.00 45 1005.9
20260509175647 31 198 0.0 1.6 0.00 0.00 0.00 45 1006.0
20260509174647 31 213 0.0 4.8 0.00 0.00 0.00 44 1006.1
20260509174147 31 161 1.6 4.8 0.00 0.00 0.00 45 1006.1
20260509173647 30 134 0.0 1.6 0.00 0.00 0.00 47 1006.1
20260509173147 30 132 0.0 1.6 0.00 0.00 0.00 48 1006.2
20260509172147 30 221 0.0 8.0 0.00 0.00 0.00 48 1006.4
20260509171646 29 221 1.6 8.0 0.00 0.00 0.00 46 1006.6
20260509171147 29 163 1.6 8.0 0.00 0.00 0.00 50 1006.5
20260509170647 29 178 0.0 3.2 0.00 0.00 0.00 51 1006.5
20260509170147 28 183 0.0 3.2 0.00 0.00 0.00 49 1006.4
20260509165647 28 121 0.0 0.0 0.00 0.00 0.00 52 1006.4
20260509165147 28 228 0.0 0.0 0.00 0.00 0.00 51 1006.5
20260509164647 28 227 0.0 3.2 0.00 0.00 0.00 53 1006.6
20260509163647 28 199 0.0 9.7 0.00 0.00 0.00 53 1006.7
20260509162647 28 231 0.0 9.7 0.00 0.00 0.00 52 1006.8
20260509162147 28 149 0.0 9.7 0.00 0.00 0.00 53 1006.8
20260509161647 27 152 1.6 9.7 0.00 0.00 0.00 56 1006.9
20260509161147 27 186 0.0 4.8 0.00 0.00 0.00 58 1006.8
20260509160647 27 218 0.0 0.0 0.00 0.00 0.00 55 1007.0
20260509160146 26 218 0.0 3.2 0.00 0.00 0.00 60 1007.0
20260509155647 26 218 0.0 3.2 0.00 0.00 0.00 62 1006.9
20260509155147 26 224 0.0 8.0 0.00 0.00 0.00 61 1007.0
20260509154646 25 216 0.0 8.0 0.00 0.00 0.00 62 1007.1
20260509154147 25 233 0.0 0.0 0.00 0.00 0.00 64 1007.2
20260509153646 25 234 0.0 0.0 0.00 0.00 0.00 66 1007.2
20260509153147 24 243 0.0 0.0 0.00 0.00 0.00 67 1007.1
20260509152647 24 244 0.0 0.0 0.00 0.00 0.00 69 1007.1
20260509152147 23 244 0.0 0.0 0.00 0.00 0.00 71 1007.1
20260509151646 23 244 0.0 0.0 0.00 0.00 0.00 74 1007.2
20260509151147 22 244 0.0 0.0 0.00 0.00 0.00 77 1007.2
20260509150647 22 244 0.0 0.0 0.00 0.00 0.00 78 1007.1
20260509150146 22 246 0.0 0.0 0.00 0.00 0.00 82 1007.2
20260509145646 21 246 0.0 0.0 0.00 0.00 0.00 83 1007.4
20260509144647 21 316 0.0 0.0 0.00 0.00 0.00 88 1007.5
20260509144147 20 19 0.0 0.0 0.00 0.00 0.00 89 1007.5
20260509143646 20 13 0.0 0.0 0.00 0.00 0.00 90 1007.6
20260509143147 20 13 0.0 0.0 0.00 0.00 0.00 90 1007.6
20260509142646 19 12 0.0 0.0 0.00 0.00 0.00 90 1007.6
20260509142146 18 11 0.0 0.0 0.00 0.00 0.00 91 1007.7
20260509141646 18 11 0.0 0.0 0.00 0.00 0.00 91 1007.8
20260509141146 18 11 0.0 0.0 0.00 0.00 0.00 91 1007.8
20260509140146 18 11 0.0 0.0 0.00 0.00 0.00 91 1007.9
20260509134646 17 11 0.0 0.0 0.00 0.00 0.00 92 1008.1
20260509133146 17 11 0.0 0.0 0.00 0.00 0.00 92 1008.0
20260509132646 16 11 0.0 0.0 0.00 0.00 0.00 92 1008.1
20260509132147 16 11 0.0 0.0 0.00 0.00 0.00 92 1008.1
20260509131646 16 11 0.0 0.0 0.00 0.00 0.00 92 1008.0
20260509131146 16 11 0.0 0.0 0.00 0.00 0.00 92 1008.0
20260509130146 15 11 0.0 0.0 0.00 0.00 0.00 91 1007.9
20260509125646 15 11 0.0 0.0 0.00 0.00 0.00 91 1007.9
20260509125146 15 11 0.0 0.0 0.00 0.00 0.00 91 1007.8
20260509124646 15 11 0.0 0.0 0.00 0.00 0.00 91 1007.7
20260509124146 15 11 0.0 0.0 0.00 0.00 0.00 90 1007.6
20260509123646 15 11 0.0 0.0 0.00 0.00 0.00 90 1007.6
20260509123146 15 11 0.0 0.0 0.00 0.00 0.00 90 1007.5
20260509122646 14 11 0.0 0.0 0.00 0.00 0.00 92 1007.5
20260509122146 14 11 0.0 0.0 0.00 0.00 0.00 90 1007.5
20260509121646 14 11 0.0 0.0 0.00 0.00 0.00 90 1007.4
20260509121147 14 11 0.0 0.0 0.00 0.00 0.00 90 1007.3
20260509120646 14 11 0.0 0.0 0.00 0.00 0.00 89 1007.3
20260509120146 14 11 0.0 0.0 0.00 0.00 0.00 89 1007.1
20260509115646 14 11 0.0 0.0 0.00 0.00 0.00 89 1007.1
20260509115146 14 11 0.0 0.0 0.00 0.00 0.00 89 1007.0
20260509114646 14 11 0.0 0.0 0.00 0.00 0.00 89 1006.9
20260509113646 15 11 0.0 0.0 0.00 0.00 0.00 89 1006.8
20260509113146 15 11 0.0 0.0 0.00 0.00 0.00 89 1006.7
20260509112146 15 11 0.0 0.0 0.00 0.00 0.00 89 1006.5
20260509111146 15 11 0.0 0.0 0.00 0.00 0.00 88 1006.5
20260509110646 15 11 0.0 0.0 0.00 0.00 0.00 88 1006.5
20260509110146 15 11 0.0 0.0 0.00 0.00 0.00 88 1006.4
20260509105646 15 11 0.0 0.0 0.00 0.00 0.00 88 1006.5
20260509104646 15 11 0.0 0.0 0.00 0.00 0.00 88 1006.4
20260509104146 15 11 0.0 0.0 0.00 0.00 0.00 64 1006.5
20260509103646 15 128 0.0 0.0 0.00 0.00 0.00 3 1006.6
20260509103146 15 130 0.0 0.0 0.00 0.00 0.00 3 1006.7
20260509102646 15 86 0.0 0.0 0.00 0.00 0.00 3 1006.7
20260509102146 15 117 0.0 0.0 0.00 0.00 0.00 3 1006.7
20260509100646 15 117 0.0 0.0 0.00 0.00 0.00 3 1006.6
20260509100146 15 115 0.0 0.0 0.00 0.00 0.00 3 1006.5
20260509095646 15 116 0.0 0.0 0.00 0.00 0.00 3 1006.7
20260509094646 16 115 0.0 0.0 0.00 0.00 0.00 3 1006.7
20260509094146 16 115 0.0 0.0 0.00 0.00 0.00 3 1006.7
20260509093646 16 116 0.0 0.0 0.00 0.00 0.00 3 1006.9
20260509093146 16 116 0.0 0.0 0.00 0.00 0.00 3 1006.8
20260509092146 15 148 0.0 0.0 0.00 0.00 0.00 3 1006.7
20260509091646 15 148 0.0 0.0 0.00 0.00 0.00 4 1006.6
20260509091146 15 148 0.0 0.0 0.00 0.00 0.00 11 1006.6
20260509090646 16 148 0.0 0.0 0.00 0.00 0.00 15 1006.4
20260509090146 16 148 0.0 0.0 0.00 0.00 0.00 12 1006.2
20260509085646 16 148 0.0 0.0 0.00 0.00 0.00 17 1006.3
20260509085146 16 148 0.0 0.0 0.00 0.00 0.00 23 1006.4
20260509084645 16 148 0.0 0.0 0.00 0.00 0.00 29 1006.4
20260509084146 17 148 0.0 0.0 0.00 0.00 0.00 31 1006.4
20260509083646 17 148 0.0 0.0 0.00 0.00 0.00 34 1006.3
20260509082646 17 148 0.0 0.0 0.00 0.00 0.00 36 1006.4
20260509082146 17 148 0.0 0.0 0.00 0.00 0.00 35 1006.4
20260509081646 17 146 0.0 0.0 0.00 0.00 0.00 38 1006.5
20260509081146 17 218 0.0 0.0 0.00 0.00 0.00 41 1006.4
20260509080646 17 219 0.0 0.0 0.00 0.00 0.00 45 1006.5
20260509080145 17 212 0.0 0.0 0.00 0.00 0.00 48 1006.5
20260509075645 18 217 0.0 0.0 0.00 0.00 0.00 49 1006.5
20260509075146 18 225 0.0 0.0 0.00 0.00 0.00 50 1006.4
20260509074645 18 160 0.0 0.0 0.00 0.00 0.00 51 1006.5
20260509074146 18 150 0.0 0.0 0.00 0.00 0.00 50 1006.6
20260509073645 18 161 0.0 0.0 0.00 0.00 0.00 50 1006.4
20260509073146 18 164 0.0 0.0 0.00 0.00 0.00 51 1006.8
20260509072646 18 164 0.0 0.0 0.00 0.00 0.00 54 1006.7
20260509072146 18 19 0.0 0.0 0.00 0.00 0.00 56 1006.8
20260509071645 18 20 0.0 0.0 0.00 0.00 0.00 57 1006.9
20260509070646 18 19 0.0 0.0 0.00 0.00 0.00 57 1007.0
20260509070145 18 19 0.0 0.0 0.00 0.00 0.00 57 1006.9
20260509065645 18 356 0.0 0.0 0.00 0.00 0.00 56 1007.0
20260509064645 18 339 0.0 0.0 0.00 0.00 0.00 55 1006.7
20260509064146 18 345 0.0 3.2 0.00 0.00 0.00 52 1006.4
20260509063646 18 345 0.0 3.2 0.00 0.00 0.00 48 1006.7
20260509063145 18 4 0.0 0.0 0.00 0.00 0.00 46 1006.5
20260509062145 17 36 0.0 1.6 0.00 0.00 0.00 42 1006.5